Theta_e
297 298 298 298 298 298 298 298 298 298 298 298 298 298 298 299 300 301 301 301 301 301 302 302 303 303 303 302 302 302 302 303 303 303 304 302 302 303 302 302 303 303 302 302 302 302 303 303 304 304 305 305 306 306 306 307 308 309 310 310 309 308 306 305 304 305 305 304 304 304 305 307 307 306 307 307 309 310 311 311 310 310 310 312 314 317 321 323
297 298 298 298 298 298 297 298 298 298 298 299 299 299 299 299 300 301 301 301 301 302 302 303 303 304 304 304 303 303 302 303 303 303 302 302 303 303 303 302 303 303 303 302 302 302 302 303 304 304 305 305 305 306 306 306 306 307 308 308 307 305 303 303 303 303 303 303 304 304 305 305 304 304 306 308 308 308 310 309 309 310 310 312 315 318 320 323
298 298 298 298 298 298 298 298 298 298 298 299 299 299 299 299 300 301 301 301 301 302 302 303 303 303 303 304 305 304 303 302 303 303 302 303 303 303 303 303 303 303 303 303 302 302 302 303 303 304 304 305 305 305 305 305 306 306 307 306 304 303 303 303 303 302 302 302 304 304 304 304 303 303 304 307 308 307 306 306 306 308 308 310 314 317 320 322
298 298 298 298 298 298 298 298 298 298 298 299 299 299 299 299 300 300 301 301 301 301 302 302 303 303 303 303 305 305 304 303 303 302 302 303 303 303 303 303 303 303 303 303 302 302 302 302 303 303 304 305 305 305 305 305 305 305 305 304 303 304 304 303 303 302 302 302 304 305 304 304 303 302 303 305 307 306 304 303 304 306 305 306 310 315 318 319
298 298 298 298 298 298 298 298 298 298 298 299 299 299 299 300 300 300 300 301 301 301 301 302 302 303 304 303 303 304 306 304 302 302 302 302 303 303 303 303 303 303 303 303 303 303 303 303 303 303 305 306 305 304 304 303 304 304 303 304 303 305 304 303 303 303 303 303 304 305 304 304 303 302 302 303 304 303 302 302 303 304 304 304 306 311 316 318
298 298 298 298 298 298 298 298 298 298 299 299 299 299 299 299 300 300 300 300 301 301 302 302 301 302 303 303 304 304 305 304 302 302 302 302 303 303 303 303 303 303 303 304 303 303 303 303 304 304 305 305 305 304 304 303 304 304 303 304 304 304 304 303 303 303 303 304 304 305 304 303 304 303 302 302 302 301 301 301 302 303 303 303 303 308 314 317
298 298 298 298 298 298 298 299 299 299 299 299 299 299 299 299 300 300 301 301 301 301 301 301 301 301 301 301 303 302 302 301 301 302 302 302 303 303 303 303 303 304 304 304 304 304 303 303 304 305 305 305 304 304 304 304 305 304 303 303 304 303 303 302 302 303 303 304 303 304 304 303 304 303 302 301 300 300 301 301 302 302 302 302 304 308 311 314
298 299 299 299 299 299 299 299 299 300 300 300 300 300 299 299 299 300 300 301 301 301 301 301 301 302 301 302 302 301 300 300 301 301 301 303 302 303 303 303 303 304 305 304 304 304 303 303 304 305 305 304 304 304 304 305 304 304 303 303 303 303 303 303 302 302 303 304 304 304 304 303 302 302 302 301 300 300 300 301 302 302 301 302 304 308 310 312
299 299 299 299 299 299 299 299 299 300 300 300 300 300 300 299 300 300 300 301 301 302 302 301 301 301 302 303 302 301 299 300 301 301 301 302 302 303 303 303 303 304 304 304 303 304 303 303 303 304 304 304 304 304 304 304 304 303 303 303 304 304 304 303 303 303 302 303 304 304 304 303 302 302 302 301 299 300 300 301 301 301 301 301 301 305 307 309
299 299 300 299 299 299 299 299 299 300 300 300 300 300 300 300 300 300 300 301 301 301 302 302 301 302 303 302 302 300 299 300 300 300 300 301 302 302 303 303 303 304 304 304 303 304 303 303 303 303 303 303 304 303 304 304 303 302 303 303 304 304 304 304 304 303 302 302 303 304 304 303 302 303 303 301 299 299 300 300 301 301 300 299 299 301 303 305
299 299 300 300 299 299 300 300 300 301 301 300 300 300 300 300 300 300 300 300 301 301 301 301 301 303 303 301 300 300 299 299 299 299 300 301 302 302 303 303 303 304 304 304 303 303 303 303 303 304 304 304 303 303 303 302 302 301 302 303 304 305 304 304 304 303 303 303 302 303 304 304 303 302 302 301 300 299 300 300 300 300 300 299 298 298 300 301
299 299 299 300 299 300 300 300 301 301 301 300 300 300 300 300 300 300 300 300 301 301 301 301 302 303 302 300 299 299 299 299 299 299 299 300 301 302 302 302 303 304 304 304 303 303 303 304 304 305 304 304 303 303 302 301 301 301 302 303 303 304 304 304 304 304 304 303 302 302 304 304 302 301 301 301 300 299 300 300 300 300 299 298 297 297 297 299
300 299 300 300 300 300 300 300 301 301 301 300 301 301 301 301 301 301 301 301 301 301 301 301 302 302 301 299 298 299 299 299 299 299 299 299 300 301 302 302 302 302 303 304 303 303 303 303 303 303 303 304 303 303 303 302 302 302 303 304 304 305 304 304 304 304 304 303 302 302 304 304 302 302 301 300 300 299 300 300 300 299 298 297 297 296 295 296
300 300 300 300 300 300 300 300 301 301 301 301 301 302 301 301 301 301 301 301 301 301 301 301 302 301 300 299 298 299 299 300 300 299 299 299 299 300 301 301 301 301 302 303 303 303 303 303 303 303 302 303 302 303 303 303 303 302 302 304 305 306 305 304 304 304 303 303 303 303 304 304 302 302 301 300 300 299 299 299 298 298 297 297 296 295 295 295
300 300 300 300 300 300 300 300 300 300 300 300 301 301 301 301 301 301 301 301 301 301 301 302 301 301 300 299 299 299 300 300 300 300 299 299 299 300 300 300 300 300 300 301 302 303 304 304 304 303 302 302 303 304 305 304 304 304 304 305 305 305 304 304 304 303 303 303 303 303 304 304 302 302 300 300 300 298 298 298 297 297 296 296 295 295 294 293
300 300 301 300 301 300 300 300 300 300 300 300 301 301 301 301 301 301 301 302 302 301 302 302 301 301 301 300 299 299 300 300 300 300 299 299 299 300 300 300 300 300 299 300 301 302 303 304 303 302 302 303 303 304 306 306 306 305 305 306 305 305 304 304 304 304 303 303 303 303 303 303 302 302 300 299 300 299 298 297 297 296 296 295 295 294 294 293
301 301 301 301 301 301 301 301 300 300 301 301 301 301 301 301 301 301 302 302 302 302 302 302 301 301 301 300 299 299 299 299 300 300 300 299 299 299 300 300 300 300 300 300 301 302 302 302 303 302 302 303 303 304 306 307 306 305 305 305 304 304 304 304 304 304 304 303 302 303 303 302 302 302 300 299 299 299 299 298 296 296 295 295 294 293 293 292
301 301 302 302 301 301 301 301 301 301 301 301 301 301 301 301 302 302 302 302 302 302 302 302 302 302 301 299 298 298 298 299 299 300 300 299 299 299 299 300 300 300 300 300 300 300 301 301 302 303 302 301 302 304 307 306 305 305 305 305 304 304 304 304 304 303 303 303 302 302 302 302 301 301 301 299 299 299 299 298 297 296 295 295 294 293 293 292
300 301 301 301 301 300 300 301 301 302 302 303 303 302 302 302 302 302 302 303 302 302 302 301 301 301 300 298 298 298 298 298 299 300 300 300 299 299 299 299 300 300 300 300 300 299 300 301 301 302 301 300 299 300 303 303 303 304 304 304 304 304 305 304 303 303 303 303 302 302 302 302 301 301 301 299 299 299 298 298 297 296 295 294 294 293 292 292
300 300 300 300 300 300 300 301 302 303 303 303 303 303 303 303 303 302 301 301 300 299 300 299 299 299 299 298 298 299 299 298 299 299 300 300 300 300 299 299 300 300 299 299 300 298 299 300 299 299 298 297 297 298 299 300 302 303 303 304 304 304 305 304 303 304 303 303 303 302 301 301 301 301 301 300 299 299 298 297 297 297 295 294 294 293 292 291
300 300 300 300 300 300 301 301 302 303 303 303 303 303 304 304 305 303 300 300 299 298 299 299 299 299 299 299 298 299 299 299 299 299 300 300 301 301 299 300 301 300 299 298 299 299 299 299 298 297 297 296 296 297 298 300 301 302 303 304 305 305 305 304 303 304 303 303 303 302 301 302 301 301 301 300 299 299 299 298 296 296 296 295 294 293 292 291
300 300 300 301 301 301 301 302 302 302 302 302 303 303 303 303 304 303 302 301 299 299 299 299 299 299 299 300 299 299 299 299 300 299 299 300 301 301 299 300 301 300 300 299 300 301 300 298 297 296 296 296 297 297 297 299 300 302 303 304 305 304 304 304 304 303 303 303 303 302 301 302 301 301 301 301 300 299 298 298 297 295 295 295 294 293 292 291
300 300 300 301 301 301 301 302 302 302 302 302 302 302 302 302 302 302 302 302 300 299 300 299 300 299 299 300 299 299 298 298 298 299 299 299 300 299 299 300 300 299 300 301 301 301 299 298 297 295 295 296 297 297 297 300 302 302 303 304 304 304 303 305 304 303 303 303 303 302 302 303 302 301 301 301 301 299 297 296 296 296 295 294 294 292 291 291
300 300 300 301 301 301 301 301 301 301 301 301 301 301 301 301 302 302 301 301 300 300 300 300 299 299 299 299 299 300 298 297 297 297 298 299 299 299 298 298 300 299 298 299 300 300 298 297 296 295 296 296 297 297 297 301 304 302 301 302 303 302 301 302 303 302 303 303 302 301 303 304 303 301 301 301 301 300 298 295 295 296 295 294 294 292 291 290
300 300 300 301 301 301 302 301 301 301 301 301 301 300 300 301 301 301 300 302 302 300 301 301 299 300 299 299 300 299 299 298 297 297 297 298 298 299 297 296 299 300 298 299 300 299 298 296 295 295 296 297 298 297 296 299 303 303 300 299 299 300 300 300 302 303 304 304 301 300 303 305 303 301 301 301 301 300 299 297 297 297 295 294 294 293 291 290
300 301 301 301 301 301 301 301 301 301 301 301 300 300 300 300 301 300 301 306 304 300 301 301 300 300 300 299 300 300 301 300 297 297 297 297 297 298 298 297 297 298 297 297 298 298 297 295 295 295 296 298 299 297 295 296 302 304 300 297 299 299 300 301 302 303 304 304 301 299 302 304 303 302 301 301 301 300 300 300 299 298 296 295 294 293 292 291
301 301 301 301 302 301 302 301 301 301 302 301 300 300 300 300 301 300 303 310 305 299 301 301 300 300 299 299 299 301 303 301 299 298 297 297 297 297 299 298 297 297 294 295 299 298 297 297 297 296 297 299 299 298 296 294 300 304 300 298 300 299 301 302 302 304 303 302 300 299 300 302 304 303 301 300 300 300 300 300 300 299 298 296 294 293 292 291
301 301 301 301 301 302 302 301 301 302 302 302 301 301 301 301 301 301 307 311 302 298 300 300 300 300 299 299 299 299 299 299 300 299 296 297 297 297 299 298 297 297 292 297 303 298 295 298 297 296 298 298 297 296 296 294 298 301 298 299 300 299 300 301 302 304 302 301 303 301 299 302 305 303 300 300 300 300 300 300 300 300 299 297 295 293 292 291
301 301 301 301 301 302 302 302 302 302 303 302 302 302 302 302 301 302 309 308 299 298 300 299 300 299 298 299 299 298 297 297 299 298 297 297 297 297 298 296 296 297 295 298 301 298 295 296 295 296 298 297 296 296 296 295 297 298 296 298 299 298 299 300 302 304 302 302 304 302 299 301 303 303 302 301 301 301 300 300 300 300 299 298 296 294 292 292
301 301 301 301 302 302 302 302 302 302 303 302 302 303 302 302 304 307 309 304 298 298 298 299 300 298 298 300 299 298 297 297 296 297 298 297 297 297 296 296 296 297 297 298 299 297 295 294 295 297 297 296 296 296 295 295 296 297 297 299 300 299 299 299 300 300 302 303 302 300 299 300 302 303 303 303 302 302 301 300 299 300 299 298 297 295 293 292
301 301 301 301 302 302 302 302 302 302 303 302 302 303 302 304 309 311 305 299 298 299 298 299 298 296 296 298 299 298 298 297 295 297 298 297 297 296 296 297 297 298 300 300 299 297 295 296 297 296 295 295 295 295 295 294 294 297 299 301 302 302 300 301 300 298 301 303 302 299 298 298 301 302 303 303 301 301 301 299 299 299 299 299 298 296 294 293
301 301 301 301 301 302 302 302 302 302 302 302 303 302 304 307 309 307 302 300 300 299 297 299 298 296 295 296 297 296 297 298 296 296 296 296 296 294 295 296 295 299 303 301 300 299 297 297 296 295 295 294 296 297 297 296 296 299 300 300 302 302 301 302 301 299 301 301 300 298 297 298 301 301 302 302 302 301 300 299 298 298 299 299 298 297 295 294
301 301 301 301 301 302 302 302 303 302 302 303 301 302 309 312 306 301 300 302 299 295 295 297 296 294 295 298 297 294 295 297 296 297 295 295 297 295 295 294 293 298 302 300 300 301 300 297 295 297 296 294 296 298 298 298 298 298 298 299 301 301 301 302 301 300 301 301 298 295 295 298 301 301 301 301 301 301 300 299 298 298 298 298 298 296 295 294
301 301 301 301 302 302 302 303 303 302 303 302 301 307 314 310 302 299 301 301 296 293 294 295 295 295 296 298 296 293 296 297 295 297 297 297 298 297 296 296 294 295 297 298 298 298 301 301 298 297 297 296 296 296 296 296 296 296 296 297 300 299 300 302 301 301 301 299 297 296 296 299 301 301 300 299 299 299 299 298 298 298 298 298 297 295 295 294
301 301 301 301 302 302 302 303 303 303 302 302 305 311 312 305 301 301 302 299 295 294 294 292 294 297 298 296 293 292 296 297 295 296 298 298 298 296 295 295 294 293 295 299 298 296 300 302 297 295 295 295 296 295 294 295 296 296 295 297 299 298 298 299 297 297 297 296 298 298 298 299 300 299 298 297 298 298 298 298 297 298 298 297 296 295 295 295
301 301 301 302 302 302 303 303 303 303 301 303 310 309 305 302 299 300 301 297 295 296 296 296 297 300 302 298 296 294 294 295 296 297 297 296 295 295 294 293 293 292 295 298 298 297 301 301 296 294 295 294 294 295 293 295 297 297 296 298 297 295 296 297 296 293 292 296 299 298 299 301 300 299 297 297 298 298 298 298 298 298 298 298 297 296 295 295
301 302 302 303 303 303 304 303 303 304 301 305 313 304 297 297 295 296 298 296 295 294 296 301 299 298 302 301 299 298 296 296 297 298 298 296 296 295 293 292 292 292 293 295 296 296 299 302 297 294 296 294 292 294 294 293 295 297 298 296 294 294 294 295 297 296 295 300 300 298 299 301 301 301 299 298 299 299 299 299 298 298 298 298 298 297 296 295
302 302 302 303 303 303 304 303 303 303 302 307 311 301 294 295 294 294 295 295 295 295 297 302 299 295 300 303 300 297 296 299 299 298 298 297 297 296 293 292 292 291 291 292 295 295 295 301 299 294 295 295 293 295 297 294 293 295 296 294 294 297 297 296 297 298 299 300 300 299 299 300 301 301 300 300 299 299 299 299 299 299 298 298 298 297 296 296
302 302 302 303 303 303 304 304 303 303 305 308 309 301 294 293 294 294 295 295 295 296 297 300 297 295 297 299 298 295 295 299 298 297 297 297 297 296 293 293 292 291 291 292 295 295 294 299 301 295 293 294 295 296 299 298 295 293 295 294 293 295 296 297 296 296 298 299 299 300 301 302 303 300 299 300 299 299 300 299 300 300 299 299 298 298 297 296
302 302 302 302 303 303 303 304 303 304 307 305 301 298 292 293 295 294 296 295 294 297 297 297 297 297 298 296 295 295 295 295 296 296 297 296 296 296 294 293 292 292 292 292 293 294 293 297 301 299 295 296 298 298 297 298 297 296 297 297 295 294 294 295 294 292 295 297 297 297 300 305 303 298 298 299 298 299 299 300 301 301 299 299 299 298 298 297
302 303 303 302 303 304 303 304 301 299 301 297 294 292 291 294 296 294 295 295 294 295 295 295 295 296 298 297 295 294 295 295 294 296 296 295 297 297 295 293 292 292 293 293 293 294 294 296 299 299 299 300 299 295 293 295 295 296 298 297 297 296 295 297 297 292 291 293 295 295 299 303 301 297 297 298 298 298 298 299 300 300 299 299 299 299 299 298
303 304 304 303 304 304 303 304 296 291 296 297 294 293 294 295 295 294 295 294 294 295 294 294 294 294 295 296 295 294 294 295 295 296 296 296 296 296 294 293 292 292 293 294 294 293 293 294 296 298 299 299 295 292 292 293 293 294 295 294 295 295 295 299 300 296 292 291 292 292 295 300 299 296 295 296 296 296 296 297 298 299 300 300 299 299 299 299
303 303 303 303 304 304 304 305 297 293 294 293 292 293 294 294 294 295 295 294 294 295 295 295 294 294 294 294 295 296 295 296 297 296 295 295 294 294 293 292 292 292 293 294 294 293 293 294 296 299 300 296 292 291 291 290 291 294 294 293 294 294 295 296 297 295 294 293 293 293 296 301 300 296 295 295 295 295 296 296 297 298 299 299 298 298 297 297
303 303 303 304 304 305 306 307 305 300 294 292 293 294 293 293 293 294 294 294 294 294 296 296 294 294 293 290 293 294 292 296 298 295 293 294 294 293 292 292 292 293 293 293 294 295 295 296 296 299 302 301 298 297 296 293 293 296 296 294 293 293 292 293 293 292 294 296 296 297 299 302 299 296 296 295 295 296 297 297 297 297 297 297 296 296 296 296
303 303 303 302 303 304 304 303 304 303 296 295 297 295 294 294 293 294 294 294 294 294 296 296 293 293 291 288 292 292 288 293 297 294 292 292 293 292 292 292 291 292 292 292 293 294 295 295 296 299 304 305 305 305 302 298 296 296 295 293 293 293 292 294 295 294 295 296 294 296 300 302 301 298 298 297 297 298 298 297 297 296 296 296 295 296 296 295
304 305 304 303 303 302 301 298 300 302 300 301 300 296 296 296 294 293 293 294 294 294 295 295 293 293 292 291 297 298 292 290 291 292 293 293 293 292 290 292 291 290 292 292 292 293 292 292 294 298 301 302 305 304 298 296 296 296 295 294 293 293 293 295 296 295 296 295 294 296 298 300 300 299 299 299 298 299 298 298 297 296 296 295 295 296 296 296
303 304 303 303 303 302 300 298 298 299 300 302 301 297 297 297 294 293 293 293 294 294 294 294 293 295 296 295 299 300 295 291 290 292 294 293 292 291 290 291 291 291 293 293 292 292 292 293 293 295 297 298 299 299 295 293 294 295 295 295 294 294 293 294 295 295 296 296 297 298 297 297 299 299 299 299 298 299 298 298 297 296 296 296 296 296 296 296
304 302 299 301 303 302 302 300 298 297 297 298 297 296 298 299 296 297 296 292 292 294 295 295 295 296 296 296 298 298 297 296 297 297 296 293 291 292 291 290 290 291 293 292 291 291 292 293 293 292 294 295 294 295 294 293 293 293 294 294 294 294 293 293 294 295 295 296 299 299 297 297 298 298 298 299 298 298 298 297 296 295 296 296 296 296 296 296
302 301 299 300 301 299 299 298 297 297 297 297 297 296 299 302 299 297 294 293 294 293 294 298 299 296 295 294 296 298 299 300 301 299 297 295 293 292 293 293 290 291 293 292 290 290 291 293 293 291 292 293 293 294 293 292 292 293 293 293 293 294 294 293 294 294 294 295 296 297 297 297 297 297 298 298 298 297 296 296 296 296 297 296 296 296 296 297
302 302 300 301 299 296 296 296 297 299 298 298 300 298 298 301 300 295 293 296 300 296 292 298 300 295 294 294 294 297 299 299 300 298 295 295 294 292 294 296 293 291 292 292 289 289 291 294 293 290 292 294 294 293 292 291 291 291 292 293 293 293 293 293 293 293 294 294 294 295 295 295 296 297 297 297 296 296 295 296 296 297 297 296 296 297 297 297
301 301 301 302 300 296 296 295 295 299 300 300 301 299 297 300 299 296 295 296 299 297 294 297 298 294 293 294 293 296 297 296 297 297 294 294 295 294 295 295 293 292 292 291 290 289 290 292 292 290 293 296 293 291 292 291 291 293 295 296 294 293 293 293 293 293 293 294 294 294 294 294 296 297 297 296 296 295 295 296 296 297 297 297 297 297 298 297
299 300 300 302 301 297 295 295 294 299 303 302 300 299 298 299 296 296 299 297 295 296 296 296 296 295 295 295 294 296 297 296 296 296 294 294 294 294 294 293 293 294 293 291 291 290 289 292 292 291 295 296 292 290 291 292 296 300 301 299 297 295 294 293 293 293 293 294 294 295 295 296 298 298 297 297 297 297 296 296 296 296 297 297 297 298 298 298
Wind_Speed
18 19 20 20 21 21 21 22 22 22 22 20 18 15 13 15 18 21 23 21 12 8 11 16 19 21 22 26 31 34 35 36 33 35 38 34 28 27 29 25 22 21 18 15 14 14 14 14 12 9 7 11 17 15 13 15 13 7 3 4 5 4 5 4 5 5 4 5 8 11 13 14 10 16 14 3 11 14 5 11 15 11 16 18 13 13 15 14
19 19 20 20 21 21 22 23 24 24 25 25 23 19 16 14 17 21 24 27 24 13 7 9 8 8 10 14 21 29 35 36 37 43 39 29 28 29 28 26 23 22 19 15 16 16 16 17 15 14 15 19 18 14 14 16 17 11 3 5 6 4 5 5 6 5 5 5 7 6 9 15 14 16 14 6 11 19 12 14 20 17 19 21 17 14 14 16
19 20 19 20 20 21 21 22 22 23 25 26 26 24 20 15 15 18 22 25 28 27 17 5 6 7 3 3 10 19 29 37 38 37 35 29 30 30 28 27 23 22 20 16 16 17 16 17 18 21 27 25 18 17 17 13 12 11 6 7 6 4 5 8 8 6 4 5 6 3 4 12 17 18 15 7 6 15 17 16 21 23 25 25 20 17 15 16
20 19 19 19 19 20 20 21 22 23 24 24 26 26 25 21 15 13 15 20 26 29 28 21 8 5 8 5 2 8 19 32 34 32 30 30 30 29 28 25 22 21 19 15 14 14 15 16 18 25 28 21 17 20 20 14 9 9 8 7 5 4 5 10 9 7 4 2 5 4 3 8 13 18 20 13 4 8 15 15 17 19 23 23 19 18 17 16
20 19 18 18 18 18 19 20 22 23 24 24 25 25 26 26 22 16 10 11 17 23 27 28 23 11 3 6 5 5 5 13 21 27 27 29 29 27 26 23 20 18 16 16 15 15 16 19 24 28 23 15 13 15 14 12 11 11 11 10 7 6 7 10 10 10 7 4 6 7 7 6 8 14 21 19 9 7 13 15 14 14 16 18 18 16 16 16
19 18 17 16 16 17 17 19 20 21 23 24 25 25 25 25 25 24 18 10 8 12 21 26 29 26 20 13 6 5 9 7 15 25 25 27 27 25 23 21 17 14 15 19 19 19 21 26 30 25 18 16 15 14 12 11 9 9 11 12 11 9 9 7 11 14 10 8 9 7 7 6 7 11 16 18 13 10 12 13 12 12 12 14 15 15 14 15
19 18 16 15 15 15 15 15 16 17 19 20 22 23 24 23 23 25 26 21 11 8 10 16 24 26 28 28 26 31 32 19 19 23 21 24 26 22 21 21 19 16 18 22 22 23 26 31 30 20 15 16 15 15 17 18 17 13 10 11 11 11 10 5 8 13 12 13 10 7 8 8 8 9 13 16 14 12 11 12 10 10 11 12 13 14 14 14
18 17 16 15 14 13 13 12 13 14 15 16 17 19 21 23 23 22 26 25 20 15 9 8 11 15 22 28 35 42 37 25 21 21 19 20 23 21 19 21 24 22 23 25 22 24 27 27 22 15 13 12 9 10 12 15 18 14 10 9 10 10 11 7 6 8 10 11 8 10 13 10 6 6 14 17 14 13 12 11 10 10 11 12 13 14 14 14
18 18 17 15 14 13 12 11 11 11 12 13 15 15 16 21 23 22 24 26 24 22 20 16 11 13 19 26 40 39 27 22 20 19 18 18 20 20 19 22 24 25 27 26 22 25 26 24 19 14 14 12 8 6 4 6 9 10 11 10 11 12 13 10 8 7 7 9 8 10 14 10 5 3 10 16 15 13 12 11 10 10 12 13 14 14 14 15
18 18 18 17 15 14 12 12 11 11 12 13 14 15 15 17 23 24 24 26 26 23 24 22 18 18 19 29 44 29 16 21 19 16 17 16 17 18 20 22 23 25 27 28 26 25 24 23 21 20 20 14 10 11 10 7 7 8 10 11 11 12 16 15 12 10 4 6 9 7 11 13 9 3 6 14 15 13 11 11 11 11 12 13 14 14 14 15
18 18 19 18 17 16 15 15 14 14 14 15 15 16 17 17 20 23 25 28 28 25 22 21 20 19 23 42 48 23 14 20 18 18 15 14 16 18 23 24 23 25 25 28 28 25 20 16 14 15 14 11 11 14 15 10 6 4 4 5 8 10 18 21 16 15 6 5 9 2 4 11 12 8 8 13 14 13 11 10 11 11 12 13 13 14 14 15
16 17 17 16 16 15 15 16 16 15 15 16 18 18 20 19 19 20 23 25 27 27 26 24 21 20 32 50 43 21 16 19 18 20 14 11 16 18 22 25 25 26 24 25 26 24 22 17 13 12 10 9 7 7 10 8 5 5 1 1 4 7 15 20 17 16 8 8 11 3 4 6 10 10 10 12 12 12 10 9 11 11 12 13 13 13 14 14
16 16 15 14 14 13 14 15 15 16 15 14 14 15 16 18 19 19 19 20 21 23 25 27 24 26 39 41 28 17 15 17 18 17 13 11 12 14 17 20 24 26 25 25 22 20 21 19 20 22 18 11 6 6 9 6 3 5 4 2 2 2 8 14 17 16 9 11 13 3 4 4 8 10 10 10 11 10 9 9 11 10 11 12 12 12 13 14
17 16 17 18 18 17 16 15 15 16 16 15 14 14 14 14 16 18 20 20 20 20 19 19 18 28 41 31 19 19 15 16 18 18 19 15 9 10 11 11 14 18 20 23 22 19 18 17 20 23 20 14 10 10 8 5 4 2 1 3 3 2 5 9 15 17 10 12 15 5 5 4 5 9 9 9 10 9 9 9 10 10 10 11 11 12 12 14
19 21 23 25 24 23 21 19 18 18 18 17 15 15 16 17 17 18 20 19 20 20 18 18 14 20 31 24 19 20 14 14 18 21 24 19 13 10 10 8 7 10 12 15 19 19 19 22 25 19 12 9 7 5 4 4 5 2 1 2 4 3 4 4 10 16 10 9 15 8 4 2 4 7 8 9 9 8 7 8 9 10 10 11 11 12 12 13
21 25 26 26 26 25 25 24 24 25 25 22 16 11 9 11 16 20 22 20 19 16 15 20 24 26 23 15 17 20 19 18 18 20 22 21 18 13 12 11 8 9 10 10 12 14 19 25 28 22 14 8 4 1 2 3 5 5 4 3 4 4 4 3 5 11 11 8 11 9 4 2 4 7 8 8 9 8 6 7 9 10 10 11 11 11 12 13
21 23 22 22 22 21 20 20 20 22 26 29 28 21 13 9 8 11 15 16 17 17 16 15 16 23 22 15 17 21 24 23 18 15 17 20 20 14 11 12 12 15 16 14 10 10 17 20 16 14 14 11 6 2 0 5 6 5 5 2 3 4 4 5 3 6 11 8 8 8 4 3 5 7 8 7 8 8 7 8 9 9 9 10 11 12 12 13
17 16 16 15 15 15 15 13 12 15 20 25 29 30 28 22 13 10 9 8 9 13 19 20 11 10 15 17 15 16 22 22 18 14 14 16 19 17 14 13 12 15 20 19 15 14 17 15 7 3 8 10 9 6 4 6 5 5 6 3 3 3 2 5 6 6 9 7 6 6 3 3 4 5 6 7 7 7 8 10 10 10 10 9 10 11 12 13
12 10 9 9 9 11 12 10 9 9 12 13 15 19 23 26 26 26 26 22 20 14 10 19 18 7 5 15 13 12 19 22 20 16 11 11 15 17 17 18 17 17 16 12 14 18 13 8 5 3 7 9 9 8 6 4 3 3 4 4 4 5 3 4 5 7 8 7 5 5 4 4 4 4 5 6 6 6 7 9 10 10 10 9 10 11 12 13
10 7 6 6 7 9 9 10 12 10 9 9 9 8 7 11 16 23 35 39 34 23 13 14 17 11 7 15 14 10 15 21 22 19 14 10 10 14 18 20 23 23 15 3 6 12 8 7 7 6 6 7 7 5 2 1 2 2 2 3 5 5 4 4 4 6 7 7 5 4 5 5 3 3 4 4 4 4 5 7 9 10 9 8 9 10 11 12
9 7 6 7 7 9 8 10 14 16 15 13 13 14 10 8 8 11 25 32 26 24 24 21 18 14 11 16 19 14 11 18 23 22 19 15 10 10 17 19 16 15 10 2 1 4 5 9 7 6 4 4 4 2 0 0 1 2 3 4 4 4 6 5 5 6 6 5 6 6 7 7 3 2 2 3 4 3 5 6 9 11 10 7 8 9 9 10
8 7 7 8 7 8 9 10 12 13 13 10 11 18 19 18 15 14 17 18 17 20 21 22 21 19 14 13 17 19 18 19 22 23 21 19 16 12 14 17 11 8 7 3 1 1 7 8 6 5 2 2 1 1 2 2 1 1 2 4 3 4 7 5 2 5 5 5 7 9 10 8 4 3 1 2 3 2 4 5 6 10 10 8 8 8 9 10
7 7 7 7 7 7 7 8 8 7 6 3 6 12 15 15 14 15 16 13 12 16 17 18 22 22 18 13 11 17 23 20 19 24 22 19 18 15 13 11 7 6 9 7 4 5 6 6 6 5 3 3 3 4 2 4 2 1 2 3 3 5 6 3 1 6 9 6 7 11 11 7 4 4 3 2 0 1 2 4 5 8 9 9 9 8 9 10
6 7 6 6 6 6 6 6 5 3 2 2 4 7 9 10 9 10 13 9 7 11 14 15 19 21 20 17 11 10 18 19 17 22 23 18 14 11 9 6 4 5 6 7 8 10 6 3 5 3 2 3 3 6 5 0 1 2 1 2 3 4 4 5 5 9 11 5 4 11 10 3 3 5 4 3 3 1 1 2 4 8 9 8 8 8 8 9
7 6 6 6 5 5 5 5 3 3 2 3 4 6 6 7 6 6 6 5 4 8 12 11 14 19 19 19 13 4 8 17 20 21 19 18 13 6 5 5 4 4 2 3 4 8 6 3 3 2 1 1 2 4 5 3 2 1 2 0 4 5 5 6 7 8 8 2 3 8 7 1 3 6 4 3 4 3 3 2 6 7 8 7 6 6 7 7
7 7 6 6 5 4 4 4 4 3 2 3 3 4 5 4 4 5 3 2 2 7 10 9 10 14 17 20 15 2 2 9 15 20 18 15 13 5 3 5 4 3 1 1 2 4 3 1 1 1 1 1 3 4 2 3 3 1 2 1 4 4 4 4 5 5 5 4 3 4 5 4 1 5 5 4 4 4 5 5 7 5 5 6 5 6 6 6
7 7 6 6 5 4 3 2 3 3 3 3 3 3 4 4 5 4 1 1 3 5 7 7 7 11 13 17 17 4 1 8 9 17 20 13 12 8 3 3 2 3 1 2 1 2 1 1 2 3 2 2 4 3 2 2 4 2 3 0 3 4 4 2 2 3 3 5 3 2 1 5 4 1 4 5 5 5 6 6 7 7 6 5 5 6 6 5
7 7 6 6 6 5 4 3 3 4 4 2 3 3 3 3 4 2 1 2 3 4 5 6 6 9 9 11 18 11 4 10 6 11 19 13 10 9 6 3 1 3 2 2 1 3 1 4 5 6 5 4 3 3 3 1 4 2 2 1 3 3 3 2 3 4 2 3 2 3 1 5 4 1 4 5 5 7 8 8 8 8 6 5 6 6 4 3
6 6 6 6 6 6 5 5 4 3 4 3 3 3 2 1 1 1 2 1 2 3 4 6 6 11 12 7 14 15 10 12 8 9 15 13 10 7 5 4 3 1 3 3 3 3 2 3 3 4 4 4 4 5 2 3 4 4 2 3 3 3 2 2 3 3 2 3 1 2 3 4 4 0 4 4 5 8 8 7 8 9 8 8 8 7 5 2
6 6 6 6 6 6 6 6 5 3 3 3 2 3 3 2 0 1 2 0 2 3 4 6 5 11 15 6 7 14 10 10 14 13 12 13 14 12 7 5 5 2 1 5 6 3 2 1 1 2 3 4 5 5 2 5 6 6 5 6 5 4 2 2 2 2 3 2 2 3 2 3 4 1 3 4 4 5 6 6 8 9 10 11 11 9 7 4
6 6 6 6 5 6 6 6 6 4 4 2 1 4 3 2 1 3 2 1 1 4 4 5 4 7 11 4 3 11 8 8 17 15 11 12 15 16 10 3 4 2 1 3 5 3 1 1 1 1 3 5 4 3 3 5 5 4 4 5 4 3 3 3 2 2 3 2 3 3 1 2 4 2 1 3 3 4 6 8 9 12 13 12 11 10 9 7
6 6 6 6 5 6 7 6 6 5 4 3 3 4 2 0 2 2 0 3 2 3 2 2 4 5 5 1 2 8 5 5 13 10 6 5 7 10 8 4 4 2 2 4 3 1 1 1 3 2 2 6 4 3 2 3 3 3 3 5 5 2 1 1 1 1 2 2 3 2 2 2 5 4 3 4 5 6 7 8 10 12 12 11 12 12 11 9
6 6 6 7 6 7 7 7 7 5 3 3 3 3 3 3 2 1 2 3 2 2 1 1 3 3 3 2 3 5 2 2 8 6 2 2 2 4 6 7 5 2 3 4 4 4 1 2 2 1 1 6 6 4 2 1 4 5 4 4 4 4 4 4 4 2 3 2 2 2 1 3 4 3 2 3 3 4 6 6 8 10 10 11 12 12 12 11
6 6 7 7 7 8 8 8 8 6 3 3 2 1 5 3 1 1 2 2 1 1 1 1 3 1 2 2 2 5 1 1 5 5 3 2 3 2 3 8 9 3 1 1 2 4 2 0 2 1 2 5 4 4 3 3 3 3 2 3 3 3 4 4 4 4 5 5 3 1 1 3 3 2 2 0 2 2 6 7 8 10 10 10 11 12 14 14
7 7 7 7 8 8 8 8 8 6 4 3 2 3 5 1 2 1 1 2 1 1 0 1 2 0 2 2 1 2 1 1 3 4 4 3 2 3 2 4 8 5 2 1 1 1 2 2 1 2 2 3 2 1 1 3 1 1 1 3 2 3 3 3 1 2 4 5 4 2 1 3 2 1 2 0 1 2 7 9 10 10 11 12 13 14 15 15
6 8 8 8 8 8 9 8 7 6 4 2 3 4 2 1 2 2 1 1 1 1 1 0 2 1 1 1 1 1 0 1 2 2 3 3 0 0 1 1 5 5 3 2 1 1 3 1 1 2 2 3 3 0 0 3 2 1 1 1 2 2 3 2 0 0 1 3 2 1 4 5 2 1 1 2 3 4 5 8 11 11 12 14 15 17 17 16
5 7 9 9 9 9 9 8 7 6 4 3 4 3 0 0 1 1 1 0 1 0 0 0 2 2 1 1 1 3 2 1 2 3 1 1 1 2 1 1 1 2 3 2 0 1 3 4 0 1 1 3 3 2 3 4 3 3 1 2 2 0 0 1 2 2 2 3 2 1 5 7 3 1 1 3 5 6 7 8 9 11 13 16 18 20 19 17
4 6 8 10 10 9 9 8 7 6 5 5 4 2 1 1 1 2 1 1 1 0 0 0 1 1 1 1 1 3 4 2 2 3 1 1 0 3 2 1 2 1 2 2 1 2 2 4 1 1 1 2 1 2 2 4 4 3 2 3 0 1 0 0 2 3 3 4 4 3 4 5 3 1 1 2 4 5 7 8 8 11 15 17 21 22 21 19
3 4 7 10 10 9 9 8 7 5 5 5 2 2 1 1 2 3 2 1 0 1 0 1 1 1 1 1 1 1 3 3 3 2 0 1 0 3 3 1 1 1 1 0 1 1 1 2 1 1 1 1 0 2 2 1 3 3 3 2 1 1 1 2 2 2 3 4 5 4 4 3 3 1 2 2 0 1 5 7 9 13 16 19 23 24 22 21
3 3 6 9 9 9 7 5 7 7 4 3 1 2 1 1 3 3 2 1 0 1 1 1 1 0 1 1 2 1 1 1 1 1 0 1 0 3 4 3 2 2 2 1 0 1 0 1 3 1 1 2 1 1 2 1 1 1 2 1 0 1 0 1 1 1 2 3 3 4 6 6 1 2 3 4 2 2 1 4 6 10 13 18 23 25 24 23
4 2 4 8 8 9 6 5 9 9 4 2 2 1 1 2 3 3 2 2 2 2 2 1 1 1 1 0 1 1 0 1 1 1 1 2 2 2 4 5 4 3 2 1 1 2 1 1 4 4 3 3 1 2 2 2 2 3 2 1 0 1 1 2 1 1 0 2 2 2 7 9 3 2 3 3 2 2 3 4 5 7 9 13 16 18 20 22
4 2 4 7 7 7 6 6 8 7 3 2 3 2 1 2 3 3 2 2 2 2 3 2 2 2 1 1 0 1 1 1 1 1 2 2 3 2 3 7 6 4 1 0 1 1 1 1 3 5 5 3 2 2 0 1 0 1 2 1 1 1 1 3 3 1 1 1 1 0 5 6 1 2 1 3 2 3 4 5 7 9 10 10 11 13 14 16
4 2 3 5 5 5 5 4 4 4 3 3 3 3 3 3 2 2 1 1 1 1 2 2 1 2 1 1 0 1 1 2 2 1 1 2 2 3 4 7 6 4 2 1 1 3 1 1 2 5 5 1 2 3 2 1 1 2 2 2 2 1 1 2 2 1 1 3 3 2 5 5 0 2 1 2 3 4 4 5 8 10 12 13 15 17 18 18
5 4 4 6 5 3 2 2 1 2 1 2 4 3 3 2 1 2 1 0 1 1 1 1 1 1 2 2 1 1 1 1 2 1 0 1 2 2 4 8 6 4 3 1 1 4 3 0 1 5 6 1 1 1 1 0 1 3 2 3 4 2 3 1 1 1 3 6 7 5 7 5 1 4 3 3 2 4 5 7 9 12 15 19 21 22 20 19
3 3 5 8 7 2 5 5 5 5 3 2 3 3 2 3 2 2 1 1 2 1 1 2 2 3 3 3 2 2 2 1 0 1 1 1 3 3 4 8 7 4 2 1 2 4 3 1 1 3 5 4 5 4 2 1 1 2 2 5 6 6 7 4 2 3 4 4 7 7 8 7 4 3 3 4 4 7 10 11 12 15 19 22 24 22 19 17
2 2 3 6 8 9 11 9 8 8 5 3 3 2 2 2 2 3 3 3 3 2 3 3 4 4 3 2 1 1 1 1 0 1 2 3 2 2 3 7 8 5 3 3 4 4 1 1 4 6 6 7 10 7 2 2 4 6 6 7 8 9 10 7 4 6 5 3 6 11 12 14 16 13 11 9 7 8 11 14 15 16 18 23 24 21 18 16
3 1 1 2 5 9 11 9 7 8 6 4 3 3 4 3 2 3 4 3 3 4 3 2 4 4 3 3 2 1 2 1 1 1 3 4 2 2 4 7 7 6 5 4 5 3 0 3 5 7 10 12 14 12 4 3 9 12 11 11 10 11 11 10 10 9 4 3 9 9 9 14 18 17 15 14 12 10 11 14 16 18 21 24 23 20 18 16
2 2 2 2 1 3 4 4 6 10 8 4 2 3 4 3 2 3 4 3 3 5 3 1 4 6 4 5 3 2 2 1 2 2 3 3 2 1 3 5 7 8 7 4 4 2 2 4 2 4 9 12 12 13 10 8 11 12 13 15 12 12 13 14 17 15 9 9 13 8 6 13 17 16 16 18 16 13 15 19 20 22 24 23 20 19 18 17
5 5 5 4 3 3 4 4 7 10 8 4 2 2 3 4 4 3 3 3 1 3 4 2 4 7 7 6 4 2 3 2 3 4 3 2 2 1 2 3 5 8 7 4 3 2 2 3 1 1 8 12 12 12 10 9 12 13 16 16 14 15 17 18 19 18 16 18 20 19 19 20 19 19 21 24 22 17 20 25 23 22 22 20 19 20 19 18
4 5 5 5 6 6 6 6 6 5 3 2 1 2 3 4 5 3 5 6 2 2 5 4 2 5 7 7 5 4 5 5 3 4 4 3 2 2 2 1 4 7 7 4 2 2 3 1 2 1 6 11 9 7 6 7 11 14 18 17 15 16 17 17 17 16 16 19 21 22 21 18 20 22 21 23 22 17 18 21 19 19 19 18 19 20 20 18
2 3 6 7 5 4 4 3 2 1 1 1 1 3 4 4 6 7 5 7 6 5 8 8 3 4 3 5 8 10 11 10 9 9 6 6 6 4 3 2 5 7 6 4 2 2 3 2 2 2 6 7 2 2 6 9 12 15 19 18 14 15 13 12 13 12 14 16 15 13 12 12 16 15 12 14 15 12 13 16 16 19 19 18 19 19 19 16
4 4 6 6 3 3 5 3 2 1 1 2 4 5 5 4 8 10 4 5 9 8 9 10 8 5 2 5 10 13 14 13 14 14 12 13 13 12 10 7 5 6 6 5 3 2 3 3 0 1 5 5 2 3 7 10 12 10 8 7 6 11 10 8 9 11 14 13 9 7 8 11 10 7 7 11 13 10 12 14 16 19 21 20 18 17 17 15
Wind_Direction
76 78 79 78 78 80 81 80 78 73 69 66 65 68 68 64 61 60 60 63 83 136 133 113 98 86 75 68 62 58 58 58 62 62 50 30 14 13 14 17 25 31 32 33 39 44 51 56 60 78 82 64 60 51 50 49 41 49 51 68 80 61 54 19 352 352 318 320 1 14 12 20 7 349 358 1 10 14 34 30 24 25 23 23 19 18 31 30
78 79 78 77 79 81 82 81 77 72 69 66 64 66 68 68 66 63 60 57 58 68 133 164 139 103 76 65 58 55 53 56 63 54 39 23 18 20 17 19 25 30 30 32 41 45 55 65 72 83 80 68 54 52 62 51 44 43 50 77 69 64 52 9 343 331 313 323 352 16 25 34 23 350 353 7 17 22 21 358 359 359 1 15 24 26 35 39
78 78 77 77 79 81 82 78 73 70 68 65 64 64 66 68 68 67 64 59 55 53 57 88 195 210 197 68 53 52 45 50 53 37 23 22 22 20 18 20 22 27 28 32 43 46 59 73 80 81 76 67 50 55 59 42 40 32 37 84 69 74 59 22 7 347 330 330 350 20 37 36 28 14 9 351 7 33 25 356 350 349 346 356 12 23 33 42
78 77 76 77 79 81 79 74 71 69 67 64 62 61 61 63 64 69 68 65 60 54 51 51 59 210 215 212 97 51 40 46 38 16 17 22 20 21 21 20 23 26 26 37 51 56 68 79 85 80 75 66 50 58 51 32 50 41 39 82 76 83 59 27 21 17 19 15 27 38 34 31 26 26 25 13 5 30 14 356 347 339 336 345 0 19 34 42
78 77 77 78 79 81 78 75 72 70 67 63 59 57 55 55 55 58 65 72 67 62 56 52 52 57 150 212 239 279 359 42 23 12 22 23 20 23 23 24 27 29 33 47 58 64 75 79 79 74 68 60 49 58 49 40 74 72 57 75 75 82 73 38 36 45 44 61 56 51 48 31 29 35 32 32 40 9 349 344 341 337 337 345 356 14 34 46
78 77 78 80 82 83 82 78 73 69 66 62 58 55 52 49 48 49 52 63 75 75 68 61 60 63 75 85 101 104 90 67 14 17 24 23 24 23 27 33 39 47 52 60 65 70 75 73 71 70 68 65 57 63 59 50 82 93 73 74 71 74 82 55 48 55 49 59 57 55 62 42 50 46 34 37 35 4 346 345 342 342 347 352 2 17 34 48
79 77 79 83 86 87 86 80 72 67 64 59 56 53 52 49 46 45 46 52 63 90 90 77 71 72 81 87 88 82 75 59 26 25 24 23 26 25 33 42 49 59 61 61 61 68 72 71 72 72 77 75 65 72 72 67 76 92 92 76 69 65 70 63 52 54 48 57 57 63 66 41 50 50 34 34 20 3 357 354 354 353 357 3 15 27 36 46
78 76 79 85 89 90 87 80 70 63 56 52 50 51 53 53 51 48 45 49 59 69 92 108 88 74 80 89 85 70 55 41 31 30 27 26 27 28 40 48 50 52 55 56 57 65 69 70 74 69 72 78 77 82 80 72 67 75 94 84 72 61 57 61 59 51 45 49 46 60 58 40 59 64 39 29 8 4 3 0 7 8 10 13 22 33 40 46
76 74 77 83 88 87 83 76 64 52 43 42 45 50 57 56 55 55 51 51 59 65 73 85 94 82 81 87 81 67 41 30 30 27 29 30 30 32 43 51 50 51 54 56 56 62 68 73 75 81 88 82 76 71 37 56 64 73 93 89 76 66 53 51 50 42 42 37 28 55 57 42 48 80 47 28 6 3 3 7 14 15 18 18 20 30 40 44
75 73 74 78 80 79 73 64 53 44 41 45 49 52 60 63 61 62 62 60 63 69 72 77 85 88 88 78 73 66 33 33 29 22 30 31 35 38 47 52 51 53 55 56 55 57 71 83 83 87 88 77 62 52 38 62 99 97 99 89 80 72 49 39 39 30 31 38 21 49 65 48 36 38 35 14 3 3 2 8 15 20 21 17 16 22 34 40
78 76 75 76 76 73 66 58 52 53 56 58 60 61 64 69 68 67 68 68 70 74 79 83 84 85 81 71 69 65 38 40 30 21 25 30 39 42 50 55 54 54 55 57 57 57 67 82 87 82 77 79 74 62 60 75 106 104 135 105 74 69 43 29 26 17 8 18 0 331 80 46 39 35 13 357 356 0 0 7 15 22 21 16 15 15 23 32
82 81 78 76 74 68 61 56 56 61 69 70 68 68 67 68 72 71 70 71 72 74 76 76 77 80 74 65 62 59 47 47 38 27 19 29 44 48 54 57 56 55 55 58 59 60 64 69 78 85 90 98 88 75 74 73 87 68 106 154 57 69 43 25 14 6 5 6 356 271 229 33 39 21 0 352 353 355 360 10 14 20 20 17 16 13 16 21
82 82 79 75 71 68 66 63 65 69 75 75 68 68 67 65 69 72 72 70 68 69 70 72 71 70 70 63 54 57 53 46 44 37 29 34 44 52 57 58 58 56 56 60 61 62 67 71 74 85 96 97 88 97 88 66 81 67 43 21 16 76 41 23 9 0 10 10 1 288 251 23 39 7 357 352 352 353 1 12 13 17 18 15 15 15 15 15
80 81 78 75 75 74 75 74 72 75 76 73 68 71 71 67 73 75 72 69 66 64 65 70 66 61 67 69 55 52 49 42 44 40 39 40 45 50 49 52 52 50 54 61 65 64 70 75 74 79 84 86 100 110 97 62 57 74 5 27 17 15 26 27 15 7 17 11 358 314 272 19 25 356 357 350 352 357 360 9 10 12 13 13 13 14 15 14
85 87 84 82 80 79 80 80 77 76 75 70 69 79 75 69 74 73 69 67 65 66 65 66 64 63 68 66 50 47 48 47 40 34 33 37 47 48 37 31 22 27 41 57 63 63 65 67 64 59 54 68 96 116 115 87 58 24 281 46 24 13 20 34 32 20 12 357 359 343 291 0 1 352 356 349 355 355 358 9 5 8 11 10 11 13 14 14
95 95 91 86 82 79 79 78 78 75 72 68 65 74 75 68 72 75 74 71 68 68 65 63 62 65 68 53 43 46 45 42 34 31 31 33 41 43 41 43 40 41 44 55 64 62 62 64 61 50 36 35 30 342 119 89 55 32 26 51 20 1 0 4 50 31 6 347 6 9 353 357 350 352 353 352 357 350 354 11 7 9 10 9 10 11 13 13
104 101 95 88 81 77 75 73 75 76 76 74 71 70 69 68 82 86 77 71 71 66 57 60 59 62 61 44 38 38 36 36 34 38 38 37 42 44 50 55 63 69 67 71 75 67 63 61 59 51 40 31 9 318 71 31 25 20 16 52 35 357 343 351 24 27 3 355 10 10 12 13 349 345 348 354 358 351 355 5 9 10 7 10 10 9 12 13
110 105 96 87 76 68 68 70 76 85 85 81 78 76 73 72 81 90 81 76 79 63 51 49 48 67 52 27 23 26 31 36 36 39 39 42 48 50 55 58 69 79 72 68 59 48 56 56 60 77 40 29 22 22 52 40 12 1 6 9 7 349 341 352 354 360 350 345 3 4 3 7 348 343 348 353 357 360 5 3 3 3 2 11 12 9 11 12
111 110 95 74 60 56 62 67 77 97 93 82 79 78 75 73 73 71 70 71 69 62 44 39 45 91 50 15 21 35 39 41 37 38 39 44 52 52 57 61 68 73 66 58 39 36 47 58 54 48 27 21 19 24 47 54 9 0 357 341 340 335 339 341 339 354 341 322 340 355 340 330 332 345 350 350 353 3 10 2 356 354 356 6 13 11 11 15
103 104 90 62 52 56 66 68 71 86 86 79 78 78 80 72 64 58 60 64 65 66 67 55 58 86 69 30 34 43 46 44 40 39 37 40 51 48 52 58 60 59 54 36 29 34 43 61 47 27 15 4 4 13 27 13 332 322 299 320 334 323 341 346 327 349 339 316 329 335 305 297 302 333 347 345 337 353 6 355 349 347 348 358 8 11 14 21
94 91 79 64 58 67 84 87 86 91 85 76 74 77 80 78 81 72 65 65 66 66 63 60 61 65 54 37 37 40 50 47 42 40 38 39 50 47 45 48 50 45 29 339 79 34 44 57 40 13 0 331 348 9 221 146 253 271 299 316 323 322 334 322 305 335 336 315 329 328 301 287 267 282 332 335 315 339 2 358 347 339 339 353 4 9 13 22
84 82 76 67 67 83 102 108 108 109 97 73 61 70 75 80 89 90 84 78 66 58 54 50 51 49 44 38 34 37 44 41 35 36 37 41 52 61 51 49 55 40 4 333 189 51 56 55 17 354 333 239 85 100 183 143 149 283 322 307 314 343 328 296 277 344 336 310 324 328 308 292 262 236 259 307 318 349 354 6 357 334 331 345 360 8 10 20
67 67 69 66 71 90 115 126 125 125 111 53 37 64 75 83 88 84 85 91 68 49 40 39 39 36 36 32 22 33 44 41 23 22 27 35 48 58 55 50 58 48 18 17 50 60 60 38 357 338 274 195 102 56 150 173 134 58 358 318 317 349 336 306 26 343 321 294 310 318 302 284 254 225 220 237 314 31 341 12 4 336 331 337 349 1 10 22
52 50 51 51 63 77 102 125 134 141 111 3 33 67 85 90 97 99 85 90 85 39 27 30 28 26 26 19 9 29 47 44 24 15 19 27 37 46 51 49 51 57 31 24 58 77 79 10 336 313 271 189 136 50 41 38 80 90 60 347 308 320 311 289 308 321 309 274 315 325 303 261 213 231 233 191 171 175 87 51 335 331 336 333 343 356 11 28
44 42 39 35 46 57 79 97 100 113 68 32 60 75 102 105 108 124 96 89 96 19 13 22 21 19 15 10 8 22 52 42 27 14 14 24 29 44 60 36 25 49 20 338 53 77 72 8 333 312 315 161 146 60 26 336 347 133 146 205 282 287 276 286 307 316 312 296 50 353 320 318 167 221 244 197 190 207 151 183 274 312 333 327 339 352 2 19
38 37 35 31 36 45 68 85 78 88 60 56 83 87 104 117 126 138 132 92 62 355 0 11 12 14 11 6 4 5 89 32 20 15 16 23 25 45 74 26 30 52 345 266 73 79 69 34 22 18 350 31 81 79 30 321 319 309 123 186 259 263 260 291 317 317 324 324 356 2 327 319 250 207 219 209 213 213 182 210 247 269 306 315 333 341 345 0
34 32 30 29 33 38 51 63 73 80 67 77 98 97 111 124 129 136 164 76 39 353 355 1 2 10 10 9 13 45 86 349 359 15 16 19 24 42 69 12 37 48 348 231 77 66 6 351 34 24 2 9 40 48 31 335 305 322 97 194 253 248 252 262 300 299 321 305 289 65 344 290 289 191 181 200 226 231 215 220 229 234 264 293 313 321 331 353
33 30 27 26 28 31 38 44 66 69 62 92 96 84 110 130 138 148 102 90 2 342 358 356 358 3 2 19 31 55 41 358 3 7 9 20 28 39 62 43 42 40 348 248 44 61 353 3 19 3 357 14 15 344 344 272 283 351 73 290 260 248 243 198 247 279 308 300 279 90 19 283 290 95 150 195 231 243 233 223 221 226 239 255 270 286 304 343
37 33 27 23 23 27 30 35 49 57 53 71 86 79 81 77 173 206 85 113 323 350 1 350 346 351 355 16 34 37 31 20 19 356 10 31 30 36 78 64 48 8 350 5 44 80 46 18 10 347 355 5 331 312 300 216 265 337 332 276 225 204 216 201 266 291 271 278 312 53 0 319 313 212 166 200 236 243 232 216 215 219 224 231 240 253 263 280
39 38 34 28 28 30 30 31 31 32 29 44 74 45 19 24 124 125 60 312 337 358 337 354 352 346 359 19 28 19 21 21 10 4 28 42 37 48 78 69 39 0 353 40 56 72 40 8 352 352 356 338 309 297 249 225 277 311 294 271 229 201 205 216 279 289 260 265 114 89 26 329 316 291 172 196 224 233 215 195 202 211 218 224 226 233 240 242
36 39 42 36 33 31 32 31 24 19 5 354 358 355 355 15 69 100 78 278 357 359 346 15 9 356 14 42 14 2 4 12 8 11 28 30 31 35 37 31 13 340 211 54 58 66 53 73 22 310 319 332 304 270 228 227 270 283 265 281 271 227 209 216 218 218 286 345 116 126 23 259 258 298 184 200 208 224 206 188 196 206 213 217 219 224 228 233
35 36 42 40 37 32 33 30 22 16 353 326 312 332 342 58 31 78 326 308 340 1 6 13 350 4 13 29 26 357 341 359 7 17 25 10 28 30 27 20 346 326 25 23 21 21 140 103 1 301 324 352 321 276 214 206 270 301 287 303 309 313 312 307 326 255 300 353 129 132 358 256 242 274 279 220 202 209 207 193 195 202 207 210 214 220 224 230
40 39 43 40 37 33 31 26 16 10 350 334 303 327 55 89 54 106 263 319 9 6 18 298 320 345 322 324 27 351 313 345 356 11 29 347 48 62 61 43 6 307 0 1 335 348 63 112 6 279 1 2 346 345 8 331 347 357 341 331 339 354 354 345 341 315 300 318 132 129 332 278 269 280 261 233 209 200 202 193 192 198 203 210 215 219 225 229
48 46 42 37 36 32 28 23 13 6 4 1 313 16 61 73 97 145 261 281 306 319 355 297 299 347 10 31 9 324 296 100 354 352 349 2 45 51 62 39 20 354 296 356 14 1 0 41 14 351 333 357 13 28 7 306 334 7 329 316 351 15 348 333 336 322 313 313 299 224 200 278 313 23 118 146 348 216 212 208 202 203 203 210 216 219 225 228
51 48 41 36 33 30 27 23 16 13 16 16 18 54 70 105 210 175 242 252 241 239 187 344 311 2 51 44 4 318 315 56 18 10 8 23 40 19 21 12 7 358 292 330 44 340 281 274 36 38 0 9 24 38 310 273 275 99 252 281 350 11 326 314 355 322 309 309 292 260 248 269 281 55 115 223 324 211 217 220 218 216 211 212 218 223 227 229
53 48 40 33 30 32 30 23 21 23 17 25 50 58 77 190 213 147 114 153 151 179 180 56 345 16 38 356 39 54 236 315 350 354 33 50 71 49 74 348 354 356 347 7 27 345 315 290 113 95 94 55 16 334 353 326 307 269 302 4 23 352 311 302 76 129 265 279 281 284 300 291 267 208 183 214 222 203 203 218 222 221 218 218 222 228 231 231
58 53 43 33 29 30 28 25 30 30 24 56 75 75 84 290 221 176 78 178 180 188 205 187 7 17 353 287 350 3 322 269 334 348 40 64 193 160 133 102 43 351 339 336 79 56 317 294 58 110 137 57 27 138 90 32 341 298 326 90 109 179 79 318 294 299 279 279 289 308 302 301 305 336 143 171 208 212 204 208 215 218 221 224 227 231 234 235
60 58 43 31 28 26 23 28 32 35 49 66 81 103 160 191 199 202 213 179 170 295 350 114 17 7 233 252 7 347 330 327 3 10 14 315 122 155 169 132 111 35 342 296 296 100 281 287 11 125 253 33 58 190 116 56 36 20 84 122 146 291 334 352 307 317 320 305 295 292 302 288 263 275 86 157 192 213 208 202 211 221 222 226 231 233 235 236
63 65 40 25 25 25 25 29 27 33 63 70 94 151 152 187 190 188 191 176 240 309 76 111 11 1 192 256 344 332 340 349 358 5 354 347 56 174 177 170 143 105 101 261 321 108 250 294 315 159 238 313 136 225 257 73 71 75 134 148 18 340 318 334 339 300 294 305 305 315 327 289 214 203 288 274 96 193 200 198 216 227 226 229 236 239 239 236
63 75 35 20 23 25 25 40 41 45 65 66 107 157 132 180 174 161 152 128 62 337 42 152 179 153 182 255 300 315 15 350 328 328 303 355 268 188 171 181 180 128 128 130 2 273 171 265 280 265 213 259 265 47 325 352 42 252 209 204 93 135 279 290 221 228 293 295 300 311 304 290 253 127 246 261 30 49 233 227 234 238 239 242 245 248 248 245
57 72 21 16 24 25 33 57 49 52 81 87 79 106 99 142 139 134 128 98 68 53 61 98 109 108 162 229 282 234 268 287 223 261 245 199 231 211 161 175 177 141 155 157 161 254 223 219 278 300 295 289 357 73 358 344 331 295 276 274 334 286 307 295 272 75 38 268 280 307 293 291 315 73 272 281 10 0 297 279 271 270 270 269 267 265 261 257
61 63 10 16 20 23 47 63 45 48 88 94 78 97 95 101 116 127 126 89 70 67 76 78 63 74 111 28 1 206 249 255 201 231 253 206 224 244 155 163 166 158 182 2 97 164 293 262 268 280 278 300 41 89 69 344 303 266 280 300 47 197 231 281 296 303 177 213 60 1 271 279 325 98 302 309 320 304 298 287 286 299 306 305 306 303 294 284
72 71 16 16 14 20 56 78 46 42 63 79 90 106 104 90 110 145 144 91 70 55 69 82 65 74 78 7 136 156 286 259 211 214 267 243 242 244 188 173 168 161 178 275 151 164 182 263 266 280 273 211 106 140 144 43 199 204 221 193 195 212 214 279 298 3 272 215 160 182 252 258 101 115 220 285 300 292 296 297 295 304 314 314 313 311 307 301
88 82 42 21 358 341 73 101 110 88 80 89 88 97 104 89 95 125 140 245 122 67 61 91 91 98 76 58 103 101 0 298 234 254 260 233 266 266 200 184 178 173 188 250 145 175 193 223 263 299 309 323 123 170 167 334 217 231 235 182 198 176 102 96 145 112 257 219 187 217 257 252 168 130 167 203 236 270 289 303 301 301 306 308 308 307 304 297
105 91 52 36 26 62 113 116 133 134 136 125 103 108 116 104 129 155 146 156 147 114 100 117 122 122 104 82 83 56 20 24 228 318 357 256 262 274 217 195 188 186 204 205 139 172 216 269 214 293 320 316 306 312 316 315 251 233 206 186 200 189 172 195 229 215 239 204 180 212 247 266 265 213 210 222 236 279 296 301 301 298 301 307 310 313 311 304
130 104 51 44 46 71 92 100 119 127 145 163 133 140 153 125 158 179 155 151 169 152 122 129 140 130 123 131 94 33 342 332 326 315 290 252 253 280 217 197 193 193 192 176 161 162 224 269 224 241 257 263 278 294 7 27 290 273 248 216 203 198 204 219 239 233 225 207 222 231 242 269 279 277 280 281 276 287 294 298 301 299 301 308 314 316 314 310
128 106 10 46 54 69 80 84 104 122 143 165 149 156 160 134 138 179 181 190 188 170 147 140 170 177 178 175 174 224 241 295 326 264 257 243 248 296 229 201 199 197 178 173 178 161 260 257 219 225 240 252 272 285 314 318 276 272 268 252 223 203 203 207 225 231 199 216 258 244 224 252 271 279 286 291 293 293 294 298 300 299 302 308 312 313 312 313
95 132 105 111 91 70 70 75 111 120 124 135 141 143 145 148 160 173 182 186 186 188 189 203 209 210 198 173 171 188 201 281 279 223 241 248 240 280 220 190 182 179 171 182 197 177 261 262 210 213 251 260 272 282 287 279 269 265 263 260 246 222 207 208 228 231 210 228 254 262 262 265 273 282 285 286 289 295 300 300 296 296 303 309 311 312 313 317
99 118 117 112 108 115 113 117 125 120 110 101 111 151 165 175 179 169 151 143 151 221 211 248 238 211 194 184 187 197 193 228 275 248 223 224 230 253 238 189 158 160 169 181 207 210 229 251 163 248 278 275 270 274 275 268 271 271 261 252 242 233 222 221 234 236 230 242 253 264 276 277 276 275 276 279 286 294 297 297 298 301 307 313 314 316 318 320
120 124 135 124 104 109 121 130 131 116 92 79 114 180 181 174 174 172 170 172 167 180 194 230 257 189 191 197 203 229 219 204 252 255 195 188 228 220 231 232 127 145 169 182 213 218 209 250 81 98 286 279 268 271 277 268 273 276 270 258 236 231 232 230 238 241 238 246 255 261 268 273 271 268 267 273 284 292 289 290 299 307 311 315 316 320 322 320
168 140 146 134 110 119 134 131 139 118 91 185 180 168 182 206 192 174 177 199 202 176 187 204 170 133 180 210 214 241 251 244 258 266 240 232 247 232 222 207 129 141 170 190 204 192 199 254 68 80 291 285 286 328 307 293 281 272 273 267 232 215 224 225 224 223 220 230 245 253 258 258 261 268 273 273 275 275 274 283 297 306 310 311 311 319 324 319
206 176 165 152 125 164 170 151 144 155 195 206 185 172 185 206 185 175 175 219 215 209 205 202 179 142 163 215 223 245 262 265 271 275 264 252 253 254 253 245 192 160 157 168 203 201 194 239 69 58 286 285 61 1 319 309 297 276 271 279 211 188 204 223 225 216 211 216 226 229 235 246 258 282 298 284 275 266 267 280 294 300 303 303 304 316 325 321